Simultaneous Nadir Overpasses (SNOs) Predictions

Prediction of SNOs between AURA and NPP Satellite Orbit:

Table of predicted SNOs for the next 14.0 days since TLE Epoch: 10/14/2012
Index Date (AURA) Time (AURA) AURA Lat,Lon Date (NPP) Time (NPP) NPP Lat,Lon Distance(km) Time Diff (sec)
1 10/15/2012 04:30:35 -79.76,-169.15 10/15/2012 04:29:54 -79.76,-169.06 1.84 41
2 10/15/2012 05:19:58 79.87, -0.62 10/15/2012 05:20:35 79.86, -0.76 2.79 37
3 10/17/2012 20:47:08 -79.75, -53.33 10/17/2012 20:46:53 -79.74, -53.48 3.14 15
4 10/17/2012 21:36:28 79.97, 116.04 10/17/2012 21:37:30 79.96, 115.98 1.22 62
5 10/20/2012 12:14:18 79.60,-106.23 10/20/2012 12:13:11 79.59,-106.35 2.51 67
6 10/20/2012 13:03:38 -79.86, 63.35 10/20/2012 13:03:48 -79.86, 63.42 1.46 10
7 10/23/2012 04:30:48 79.71, 10.45 10/23/2012 04:30:07 79.70, 10.39 1.23 41
8 10/23/2012 05:20:08 -79.96,-179.92 10/23/2012 05:20:44 -79.97,-179.78 2.72 36
9 10/25/2012 20:47:17 79.82, 127.17 10/25/2012 20:47:02 79.83, 127.32 3.22 15
10 10/25/2012 21:36:40 -79.97, -64.01 10/25/2012 21:37:43 -79.97, -63.98 0.74 63
11 10/28/2012 12:14:28 -79.69, 74.37 10/28/2012 12:13:23 -79.69, 74.46 1.97 65




NCC Satellite Simultaneous Nadir Overpasses (SNOs) Prediction Service
